• In Italy
  • List of Countries
  • For 7 days
  • Water Temperature
  • Satellite Maps
  • Weather Map
  • Weather Widgets
  • user-avatar
    Login

    Hourly Weather Kipungo

    Today, 19 August, Saturday

    Time Temperature Precipitation Wind Pressure Humidity
    00:00 +18°C° 0 mm 1 mps 653 mmHg 37%
    01:00 +16°C° 0 mm 1 mps 653 mmHg 44%
    02:00 +15°C° 0 mm 1 mps 653 mmHg 44%
    03:00 +15°C° 0 mm 1 mps 653 mmHg 43%
    04:00 +14°C° 0 mm 1 mps 652 mmHg 42%
    05:00 +14°C° 0 mm 1 mps 653 mmHg 38%
    06:00 +15°C° 0 mm 1 mps 653 mmHg 35%
    07:00 +15°C° 0 mm 1 mps 654 mmHg 31%
    08:00 +19°C° 0 mm 2 mps 655 mmHg 26%
    09:00 +24°C° 0 mm 3 mps 656 mmHg 20%
    10:00 +28°C° 0 mm 4 mps 656 mmHg 14%
    11:00 +30°C° 0 mm 3 mps 656 mmHg 13%
    12:00 +33°C° 0 mm 3 mps 656 mmHg 11%
    13:00 +35°C° 0 mm 2 mps 656 mmHg 10%
    14:00 +35°C° 0 mm 2 mps 655 mmHg 9%
    15:00 +34°C° 0 mm 1 mps 655 mmHg 9%
    16:00 +34°C° 0 mm 1 mps 655 mmHg 9%
    17:00 +31°C° 0 mm 1 mps 654 mmHg 12%
    18:00 +28°C° 0 mm 1 mps 654 mmHg 15%
    19:00 +25°C° 0 mm 1 mps 654 mmHg 18%
    20:00 +24°C° 0 mm 1 mps 654 mmHg 25%
    21:00 +21°C° 0 mm 2 mps 654 mmHg 33%
    22:00 +20°C° 0 mm 2 mps 654 mmHg 41%
    23:00 +19°C° 0 mm 2 mps 654 mmHg 46%

    Tomorrow, 20 August, Sunday

    Time Temperature Precipitation Wind Pressure Humidity
    00:00 +18°C° 0 mm 2 mps 654 mmHg 51%
    01:00 +18°C° 0 mm 1 mps 654 mmHg 56%
    02:00 +18°C° 0 mm 1 mps 654 mmHg 57%
    03:00 +16°C° 0 mm 1 mps 654 mmHg 58%
    04:00 +15°C° 0 mm 1 mps 653 mmHg 58%
    05:00 +15°C° 0 mm 1 mps 654 mmHg 55%
    06:00 +15°C° 0 mm 1 mps 654 mmHg 51%
    07:00 +15°C° 0 mm 1 mps 654 mmHg 48%
    08:00 +19°C° 0 mm 2 mps 655 mmHg 36%
    09:00 +24°C° 0 mm 2 mps 656 mmHg 25%
    10:00 +29°C° 0 mm 3 mps 657 mmHg 13%
    11:00 +31°C° 0 mm 3 mps 657 mmHg 12%
    12:00 +34°C° 0 mm 3 mps 657 mmHg 10%
    13:00 +36°C° 0 mm 3 mps 656 mmHg 9%
    14:00 +36°C° 0 mm 3 mps 656 mmHg 8%
    15:00 +36°C° 0 mm 2 mps 655 mmHg 8%
    16:00 +36°C° 0 mm 2 mps 655 mmHg 8%
    17:00 +32°C° 0 mm 2 mps 655 mmHg 10%
    18:00 +29°C° 0 mm 1 mps 654 mmHg 12%
    19:00 +26°C° 0 mm 1 mps 654 mmHg 14%
    20:00 +25°C° 0 mm 1 mps 654 mmHg 15%
    21:00 +23°C° 0 mm 2 mps 655 mmHg 17%
    22:00 +21°C° 0 mm 2 mps 655 mmHg 18%
    23:00 +20°C° 0 mm 2 mps 655 mmHg 20%

    Day after tomorrow, 21 August, Monday

    Time Temperature Precipitation Wind Pressure Humidity
    00:00 +19°C° 0 mm 2 mps 654 mmHg 22%
    01:00 +19°C° 0 mm 1 mps 654 mmHg 24%
    02:00 +18°C° 0 mm 1 mps 654 mmHg 24%
    03:00 +18°C° 0 mm 1 mps 654 mmHg 25%
    04:00 +16°C° 0 mm 1 mps 653 mmHg 25%
    05:00 +16°C° 0 mm 1 mps 654 mmHg 24%
    06:00 +16°C° 0 mm 1 mps 654 mmHg 23%
    07:00 +16°C° 0 mm 1 mps 655 mmHg 22%
    08:00 +21°C° 0 mm 2 mps 656 mmHg 19%
    09:00 +26°C° 0 mm 3 mps 657 mmHg 16%
    10:00 +30°C° 0 mm 4 mps 658 mmHg 14%
    11:00 +32°C° 0 mm 4 mps 657 mmHg 12%
    12:00 +34°C° 0 mm 4 mps 657 mmHg 11%
    13:00 +36°C° 0 mm 3 mps 656 mmHg 10%
    14:00 +36°C° 0 mm 3 mps 655 mmHg 10%
    15:00 +36°C° 0 mm 3 mps 655 mmHg 9%
    16:00 +36°C° 0 mm 2 mps 654 mmHg 9%
    17:00 +32°C° 0 mm 2 mps 654 mmHg 11%
    18:00 +29°C° 0 mm 2 mps 654 mmHg 13%
    19:00 +26°C° 0 mm 1 mps 654 mmHg 15%
    20:00 +25°C° 0 mm 1 mps 654 mmHg 16%
    21:00 +24°C° 0 mm 2 mps 655 mmHg 18%
    22:00 +21°C° 0 mm 2 mps 655 mmHg 19%
    23:00 +21°C° 0 mm 2 mps 654 mmHg 19%

    22 August, Tuesday

    Time Temperature Precipitation Wind Pressure Humidity
    00:00 +20°C° 0 mm 2 mps 654 mmHg 20%
    01:00 +19°C° 0 mm 2 mps 653 mmHg 21%
    02:00 +18°C° 0 mm 2 mps 653 mmHg 21%
    03:00 +17°C° 0 mm 2 mps 653 mmHg 21%
    04:00 +17°C° 0 mm 2 mps 653 mmHg 20%
    05:00 +17°C° 0 mm 2 mps 653 mmHg 20%
    06:00 +18°C° 0 mm 1 mps 654 mmHg 20%
    07:00 +18°C° 0 mm 1 mps 654 mmHg 20%
    08:00 +21°C° 0 mm 2 mps 655 mmHg 18%
    09:00 +26°C° 0 mm 2 mps 656 mmHg 16%
    10:00 +30°C° 0 mm 3 mps 657 mmHg 13%
    11:00 +33°C° 0 mm 3 mps 656 mmHg 12%
    12:00 +34°C° 0 mm 3 mps 656 mmHg 10%
    13:00 +36°C° 0 mm 3 mps 655 mmHg 8%
    14:00 +36°C° 0 mm 3 mps 655 mmHg 8%
    15:00 +36°C° 0 mm 3 mps 654 mmHg 8%
    16:00 +36°C° 0 mm 3 mps 654 mmHg 7%
    17:00 +32°C° 0 mm 2 mps 653 mmHg 9%
    18:00 +29°C° 0 mm 2 mps 653 mmHg 10%
    19:00 +26°C° 0 mm 1 mps 653 mmHg 12%
    20:00 +25°C° 0 mm 1 mps 653 mmHg 13%
    21:00 +23°C° 0 mm 1 mps 653 mmHg 14%
    22:00 +22°C° 0 mm 1 mps 653 mmHg 16%
    23:00 +21°C° 0 mm 1 mps 653 mmHg 17%

    23 August, Wednesday

    Time Temperature Precipitation Wind Pressure Humidity
    00:00 +20°C° 0 mm 1 mps 652 mmHg 18%
    01:00 +19°C° 0 mm 1 mps 652 mmHg 19%
    02:00 +18°C° 0 mm 1 mps 652 mmHg 20%
    03:00 +18°C° 0 mm 1 mps 651 mmHg 21%
    04:00 +16°C° 0 mm 1 mps 651 mmHg 21%
    05:00 +16°C° 0 mm 1 mps 652 mmHg 21%
    06:00 +18°C° 0 mm 1 mps 652 mmHg 21%
    07:00 +18°C° 0 mm 1 mps 653 mmHg 20%
    08:00 +22°C° 0 mm 1 mps 654 mmHg 17%
    09:00 +26°C° 0 mm 2 mps 654 mmHg 14%
    10:00 +30°C° 0 mm 2 mps 655 mmHg 10%
    11:00 +32°C° 0 mm 2 mps 655 mmHg 9%
    12:00 +35°C° 0 mm 2 mps 654 mmHg 8%
    13:00 +37°C° 0 mm 2 mps 654 mmHg 7%
    14:00 +37°C° 0 mm 2 mps 654 mmHg 7%
    15:00 +36°C° 0 mm 1 mps 653 mmHg 7%
    16:00 +36°C° 0 mm 1 mps 653 mmHg 7%
    17:00 +32°C° 0 mm 1 mps 653 mmHg 10%
    18:00 +29°C° 0 mm 1 mps 652 mmHg 13%
    19:00 +26°C° 0 mm 1 mps 652 mmHg 16%
    20:00 +24°C° 0 mm 2 mps 652 mmHg 26%
    21:00 +23°C° 0 mm 2 mps 652 mmHg 36%
    22:00 +20°C° 0 mm 2 mps 652 mmHg 46%
    23:00 +19°C° 0 mm 2 mps 652 mmHg 53%

    24 August, Thursday

    Time Temperature Precipitation Wind Pressure Humidity
    00:00 +18°C° 0 mm 2 mps 652 mmHg 60%
    01:00 +17°C° 0 mm 2 mps 652 mmHg 68%
    02:00 +17°C° 0 mm 2 mps 652 mmHg 72%
    03:00 +16°C° 0 mm 2 mps 652 mmHg 76%
    04:00 +15°C° 0 mm 2 mps 652 mmHg 80%
    05:00 +16°C° 0 mm 2 mps 652 mmHg 79%
    06:00 +16°C° 0 mm 1 mps 652 mmHg 78%
    07:00 +16°C° 0 mm 1 mps 653 mmHg 77%
    08:00 +20°C° 0 mm 2 mps 654 mmHg 59%
    09:00 +25°C° 0 mm 2 mps 655 mmHg 41%
    10:00 +29°C° 0 mm 2 mps 656 mmHg 22%
    11:00 +32°C° 0 mm 2 mps 655 mmHg 19%
    12:00 +34°C° 0 mm 1 mps 655 mmHg 15%
    13:00 +37°C° 0 mm 1 mps 655 mmHg 11%
    14:00 +36°C° 0 mm 1 mps 655 mmHg 11%
    15:00 +35°C° 0 mm 1 mps 654 mmHg 11%
    16:00 +35°C° 0 mm 1 mps 654 mmHg 11%
    17:00 +32°C° 0 mm 2 mps 654 mmHg 18%
    18:00 +29°C° 0 mm 3 mps 653 mmHg 25%
    19:00 +26°C° 0 mm 3 mps 653 mmHg 32%
    20:00 +24°C° 0 mm 3 mps 653 mmHg 41%
    21:00 +21°C° 0 mm 3 mps 654 mmHg 50%
    22:00 +20°C° 0 mm 3 mps 654 mmHg 59%
    23:00 +19°C° 0 mm 2 mps 653 mmHg 65%
    Show more